Time,TemperatureF,DewpointF,PressureIn,WindDirection,WindDirectionDegrees,WindSpeedMPH,WindSpeedGustMPH,Humidity,HourlyPrecipIn,Conditions,Clouds,dailyrainin,SoftwareType,DateUTC
2013-06-15 00:02:00,64.0,62.0,29.98,ENE,68,0.0,-999.0,92,-99.99,,,0.00,,2013-06-15 05:02:00,
2013-06-15 00:12:00,64.0,62.0,29.98,ENE,68,0.0,-999.0,93,-99.99,,,0.00,,2013-06-15 05:12:00,
2013-06-15 00:22:00,64.0,62.0,29.99,ENE,68,0.0,-999.0,94,-99.99,,,0.00,,2013-06-15 05:22:00,
2013-06-15 00:34:00,64.0,62.0,29.99,ENE,68,0.0,-999.0,94,-99.99,,,0.00,,2013-06-15 05:34:00,
2013-06-15 00:43:00,64.0,63.0,29.99,ENE,68,0.0,-999.0,95,-99.99,,,0.00,,2013-06-15 05:43:00,
2013-06-15 00:52:00,64.0,63.0,29.99,ENE,68,0.0,-999.0,95,-99.99,,,0.00,,2013-06-15 05:52:00,
2013-06-15 01:02:00,63.0,62.0,29.99,ENE,68,0.0,-999.0,95,-99.99,,,0.00,,2013-06-15 06:02:00,
2013-06-15 01:12:00,63.0,62.0,29.98,ENE,68,0.0,-999.0,95,-99.99,,,0.00,,2013-06-15 06:12:00,
2013-06-15 01:24:00,63.0,62.0,29.98,ENE,68,0.0,-999.0,95,-99.99,,,0.00,,2013-06-15 06:24:00,
2013-06-15 01:33:00,63.0,62.0,29.98,ENE,68,1.0,-999.0,95,-99.99,,,0.00,,2013-06-15 06:33:00,
2013-06-15 01:43:00,62.0,61.0,29.99,ENE,68,0.0,-999.0,95,-99.99,,,0.00,,2013-06-15 06:43:00,
2013-06-15 01:53:00,62.0,61.0,30.00,ENE,68,0.0,-999.0,96,-99.99,,,0.00,,2013-06-15 06:53:00,
2013-06-15 02:01:00,62.0,61.0,29.99,ENE,68,0.0,-999.0,96,-99.99,,,0.00,,2013-06-15 07:01:00,
2013-06-15 02:11:00,62.0,61.0,29.99,ENE,68,0.0,-999.0,96,-99.99,,,0.00,,2013-06-15 07:11:00,
2013-06-15 02:23:00,62.0,61.0,29.99,ENE,68,0.0,-999.0,96,-99.99,,,0.00,,2013-06-15 07:23:00,
2013-06-15 02:33:00,62.0,61.0,29.98,ENE,68,0.0,-999.0,96,-99.99,,,0.00,,2013-06-15 07:33:00,
2013-06-15 02:43:00,61.0,60.0,29.98,ENE,68,0.0,-999.0,97,-99.99,,,0.00,,2013-06-15 07:43:00,
2013-06-15 02:53:00,61.0,60.0,29.98,ENE,68,0.0,-999.0,97,-99.99,,,0.00,,2013-06-15 07:53:00,
2013-06-15 03:02:00,61.0,60.0,29.98,ENE,68,0.0,-999.0,97,-99.99,,,0.00,,2013-06-15 08:02:00,
2013-06-15 03:11:00,61.0,60.0,29.98,ENE,68,0.0,-999.0,97,-99.99,,,0.00,,2013-06-15 08:11:00,
2013-06-15 03:22:00,61.0,60.0,29.98,ENE,68,0.0,-999.0,97,-99.99,,,0.00,,2013-06-15 08:22:00,
2013-06-15 03:33:00,61.0,60.0,29.98,ENE,68,0.0,-999.0,97,-99.99,,,0.00,,2013-06-15 08:33:00,
2013-06-15 03:43:00,61.0,60.0,29.99,ENE,68,0.0,-999.0,97,-99.99,,,0.00,,2013-06-15 08:43:00,
2013-06-15 03:53:00,61.0,60.0,29.99,ENE,68,0.0,-999.0,97,-99.99,,,0.00,,2013-06-15 08:53:00,
2013-06-15 04:02:00,60.0,59.0,30.00,ENE,68,0.0,-999.0,97,-99.99,,,0.00,,2013-06-15 09:02:00,
2013-06-15 04:12:00,60.0,59.0,30.01,ENE,68,0.0,-999.0,97,-99.99,,,0.00,,2013-06-15 09:12:00,
2013-06-15 04:22:00,60.0,59.0,30.01,ENE,68,0.0,-999.0,97,-99.99,,,0.00,,2013-06-15 09:22:00,
2013-06-15 04:33:00,60.0,59.0,30.01,ENE,68,0.0,-999.0,97,-99.99,,,0.00,,2013-06-15 09:33:00,
2013-06-15 04:43:00,60.0,59.0,30.01,ENE,68,0.0,-999.0,98,-99.99,,,0.00,,2013-06-15 09:43:00,
2013-06-15 04:52:00,60.0,59.0,30.01,ENE,68,0.0,-999.0,98,-99.99,,,0.00,,2013-06-15 09:52:00,
2013-06-15 05:02:00,59.0,58.0,30.01,ENE,68,0.0,-999.0,97,-99.99,,,0.00,,2013-06-15 10:02:00,
2013-06-15 05:11:00,59.0,58.0,30.01,ENE,68,0.0,-999.0,97,-99.99,,,0.00,,2013-06-15 10:11:00,
2013-06-15 05:23:00,59.0,58.0,30.02,ENE,68,0.0,-999.0,98,-99.99,,,0.00,,2013-06-15 10:23:00,
2013-06-15 05:34:00,59.0,58.0,30.02,ENE,68,0.0,-999.0,98,-99.99,,,0.00,,2013-06-15 10:34:00,
2013-06-15 05:44:00,59.0,58.0,30.03,ENE,68,0.0,-999.0,98,-99.99,,,0.00,,2013-06-15 10:44:00,
2013-06-15 05:53:00,59.0,58.0,30.03,ENE,68,0.0,-999.0,98,-99.99,,,0.00,,2013-06-15 10:53:00,
2013-06-15 06:02:00,59.0,58.0,30.03,ENE,68,0.0,-999.0,98,-99.99,,,0.00,,2013-06-15 11:02:00,
2013-06-15 06:12:00,59.0,58.0,30.03,NW,315,0.0,-999.0,98,-99.99,,,0.00,,2013-06-15 11:12:00,
2013-06-15 06:22:00,59.0,58.0,30.03,NW,315,0.0,-999.0,98,-99.99,,,0.00,,2013-06-15 11:22:00,
2013-06-15 06:33:00,60.0,59.0,30.04,NW,314,0.0,-999.0,98,-99.99,,,0.00,,2013-06-15 11:33:00,
2013-06-15 06:43:00,60.0,59.0,30.04,NW,314,0.0,-999.0,98,-99.99,,,0.00,,2013-06-15 11:43:00,
2013-06-15 06:53:00,61.0,61.0,30.04,NW,315,0.0,-999.0,99,-99.99,,,0.00,,2013-06-15 11:53:00,
2013-06-15 07:02:00,62.0,62.0,30.05,NW,315,0.0,-999.0,99,-99.99,,,0.00,,2013-06-15 12:02:00,
2013-06-15 07:12:00,63.0,63.0,30.05,NW,314,0.0,-999.0,99,-99.99,,,0.00,,2013-06-15 12:12:00,
2013-06-15 07:22:00,64.0,64.0,30.05,NW,314,0.0,-999.0,99,-99.99,,,0.00,,2013-06-15 12:22:00,
2013-06-15 07:33:00,65.0,65.0,30.05,NW,314,0.0,-999.0,99,-99.99,,,0.00,,2013-06-15 12:33:00,
2013-06-15 07:43:00,66.0,65.0,30.04,NW,315,0.0,-999.0,98,-99.99,,,0.00,,2013-06-15 12:43:00,
2013-06-15 07:52:00,67.0,66.0,30.04,NW,314,0.0,-999.0,95,-99.99,,,0.00,,2013-06-15 12:52:00,
2013-06-15 08:02:00,69.0,66.0,30.04,NW,314,0.0,-999.0,89,-99.99,,,0.00,,2013-06-15 13:02:00,
2013-06-15 08:11:00,71.0,66.0,30.04,NW,314,0.0,-999.0,85,-99.99,,,0.00,,2013-06-15 13:11:00,
2013-06-15 08:22:00,72.0,66.0,30.04,NW,315,0.0,-999.0,81,-99.99,,,0.00,,2013-06-15 13:22:00,
2013-06-15 08:32:00,73.0,66.0,30.04,NW,315,1.0,-999.0,80,-99.99,,,0.00,,2013-06-15 13:32:00,
2013-06-15 08:43:00,74.0,66.0,30.03,NW,314,2.0,-999.0,76,-99.99,,,0.00,,2013-06-15 13:43:00,
2013-06-15 08:53:00,75.0,66.0,30.03,South,183,2.0,-999.0,74,-99.99,,,0.00,,2013-06-15 13:53:00,
2013-06-15 09:02:00,76.0,66.0,30.03,ESE,116,3.0,-999.0,72,-99.99,,,0.00,,2013-06-15 14:02:00,
2013-06-15 09:12:00,77.0,66.0,30.03,SSE,167,3.0,-999.0,68,-99.99,,,0.00,,2013-06-15 14:12:00,
2013-06-15 09:22:00,77.0,66.0,30.02,SSE,153,3.0,-999.0,70,-99.99,,,0.00,,2013-06-15 14:22:00,
2013-06-15 09:34:00,77.0,66.0,30.02,SSE,151,4.0,-999.0,70,-99.99,,,0.00,,2013-06-15 14:34:00,
2013-06-15 09:43:00,78.0,67.0,30.01,SSE,153,5.0,-999.0,68,-99.99,,,0.00,,2013-06-15 14:43:00,
2013-06-15 09:53:00,78.0,67.0,30.01,SSE,155,5.0,-999.0,68,-99.99,,,0.00,,2013-06-15 14:53:00,
2013-06-15 10:02:00,79.0,68.0,30.01,SSE,149,6.0,-999.0,68,-99.99,,,0.00,,2013-06-15 15:02:00,
2013-06-15 10:11:00,80.0,67.0,30.01,South,174,4.0,-999.0,65,-99.99,,,0.00,,2013-06-15 15:11:00,
2013-06-15 10:22:00,80.0,67.0,30.01,SSW,213,5.0,-999.0,65,-99.99,,,0.00,,2013-06-15 15:22:00,
2013-06-15 10:33:00,81.0,68.0,30.01,SSE,160,4.0,-999.0,64,-99.99,,,0.00,,2013-06-15 15:33:00,
2013-06-15 10:43:00,82.0,68.0,30.01,South,189,3.0,-999.0,62,-99.99,,,0.00,,2013-06-15 15:43:00,
2013-06-15 10:53:00,83.0,68.0,30.01,SW,219,4.0,-999.0,61,-99.99,,,0.00,,2013-06-15 15:53:00,
2013-06-15 11:01:00,83.0,69.0,30.01,SW,216,5.0,-999.0,62,-99.99,,,0.00,,2013-06-15 16:01:00,
2013-06-15 11:11:00,83.0,68.0,30.01,SW,235,5.0,-999.0,60,-99.99,,,0.00,,2013-06-15 16:11:00,
2013-06-15 11:22:00,84.0,67.0,30.01,SW,214,4.0,-999.0,56,-99.99,,,0.00,,2013-06-15 16:22:00,
2013-06-15 11:33:00,85.0,69.0,30.00,SSE,162,4.0,-999.0,58,-99.99,,,0.00,,2013-06-15 16:33:00,
2013-06-15 11:43:00,85.0,66.0,30.00,SSE,154,3.0,-999.0,53,-99.99,,,0.00,,2013-06-15 16:43:00,
2013-06-15 11:53:00,86.0,67.0,30.00,SW,216,4.0,-999.0,54,-99.99,,,0.00,,2013-06-15 16:53:00,
2013-06-15 12:02:00,86.0,68.0,29.99,WNW,283,4.0,-999.0,55,-99.99,,,0.00,,2013-06-15 17:02:00,
2013-06-15 12:12:00,86.0,66.0,29.99,SSW,210,5.0,-999.0,52,-99.99,,,0.00,,2013-06-15 17:12:00,
2013-06-15 12:22:00,86.0,67.0,29.99,SW,218,5.0,-999.0,53,-99.99,,,0.00,,2013-06-15 17:22:00,
2013-06-15 12:32:00,87.0,67.0,29.99,South,187,4.0,-999.0,52,-99.99,,,0.00,,2013-06-15 17:32:00,
2013-06-15 12:43:00,86.0,67.0,29.99,SW,226,5.0,-999.0,53,-99.99,,,0.00,,2013-06-15 17:43:00,
2013-06-15 12:52:00,86.0,66.0,29.99,SW,223,3.0,-999.0,52,-99.99,,,0.00,,2013-06-15 17:52:00,
2013-06-15 13:01:00,87.0,67.0,29.99,West,270,3.0,-999.0,52,-99.99,,,0.00,,2013-06-15 18:01:00,
2013-06-15 13:12:00,87.0,67.0,29.98,SE,135,3.0,-999.0,51,-99.99,,,0.00,,2013-06-15 18:12:00,
2013-06-15 13:22:00,87.0,67.0,29.98,SE,143,4.0,-999.0,51,-99.99,,,0.00,,2013-06-15 18:22:00,
2013-06-15 13:32:00,87.0,67.0,29.98,SW,232,4.0,-999.0,51,-99.99,,,0.00,,2013-06-15 18:32:00,
2013-06-15 13:43:00,88.0,66.0,29.97,SW,231,5.0,-999.0,48,-99.99,,,0.00,,2013-06-15 18:43:00,
2013-06-15 13:53:00,88.0,66.0,29.97,SSW,210,4.0,-999.0,49,-99.99,,,0.00,,2013-06-15 18:53:00,
2013-06-15 14:01:00,87.0,68.0,29.96,South,189,5.0,-999.0,53,-99.99,,,0.00,,2013-06-15 19:01:00,
2013-06-15 14:12:00,88.0,65.0,29.96,South,185,5.0,-999.0,47,-99.99,,,0.00,,2013-06-15 19:12:00,
2013-06-15 14:22:00,88.0,66.0,29.96,SSW,210,4.0,-999.0,49,-99.99,,,0.00,,2013-06-15 19:22:00,
2013-06-15 14:33:00,88.0,65.0,29.96,SSE,164,5.0,-999.0,47,-99.99,,,0.00,,2013-06-15 19:33:00,
2013-06-15 14:43:00,88.0,65.0,29.96,West,278,3.0,-999.0,47,-99.99,,,0.00,,2013-06-15 19:43:00,
2013-06-15 14:52:00,88.0,65.0,29.96,SSW,197,3.0,-999.0,47,-99.99,,,0.00,,2013-06-15 19:52:00,
2013-06-15 15:02:00,88.0,66.0,29.95,SW,222,4.0,-999.0,49,-99.99,,,0.00,,2013-06-15 20:02:00,
2013-06-15 15:11:00,89.0,67.0,29.95,South,187,5.0,-999.0,48,-99.99,,,0.00,,2013-06-15 20:11:00,
2013-06-15 15:22:00,88.0,65.0,29.95,SSW,199,4.0,-999.0,47,-99.99,,,0.00,,2013-06-15 20:22:00,
2013-06-15 15:33:00,88.0,68.0,29.94,SSE,152,5.0,-999.0,51,-99.99,,,0.00,,2013-06-15 20:33:00,
2013-06-15 15:43:00,89.0,67.0,29.94,SSW,202,5.0,-999.0,49,-99.99,,,0.00,,2013-06-15 20:43:00,
2013-06-15 15:53:00,89.0,67.0,29.93,WSW,237,5.0,-999.0,48,-99.99,,,0.00,,2013-06-15 20:53:00,
2013-06-15 16:02:00,89.0,67.0,29.94,South,187,5.0,-999.0,48,-99.99,,,0.00,,2013-06-15 21:02:00,
2013-06-15 16:12:00,89.0,67.0,29.93,South,187,4.0,-999.0,49,-99.99,,,0.00,,2013-06-15 21:12:00,
2013-06-15 16:22:00,89.0,67.0,29.93,SSW,193,6.0,-999.0,49,-99.99,,,0.00,,2013-06-15 21:22:00,
2013-06-15 16:33:00,89.0,67.0,29.93,SSW,213,5.0,-999.0,49,-99.99,,,0.00,,2013-06-15 21:33:00,
2013-06-15 16:42:00,89.0,67.0,29.93,SSW,195,4.0,-999.0,48,-99.99,,,0.00,,2013-06-15 21:42:00,
2013-06-15 16:52:00,89.0,67.0,29.92,SSW,196,3.0,-999.0,49,-99.99,,,0.00,,2013-06-15 21:52:00,
2013-06-15 17:01:00,89.0,67.0,29.92,SSW,194,5.0,-999.0,48,-99.99,,,0.00,,2013-06-15 22:01:00,
2013-06-15 17:11:00,88.0,66.0,29.92,SSE,156,5.0,-999.0,48,-99.99,,,0.00,,2013-06-15 22:11:00,
2013-06-15 17:22:00,88.0,67.0,29.93,South,189,6.0,-999.0,50,-99.99,,,0.00,,2013-06-15 22:22:00,
2013-06-15 17:33:00,88.0,67.0,29.92,SSW,209,4.0,-999.0,50,-99.99,,,0.00,,2013-06-15 22:33:00,
2013-06-15 17:43:00,88.0,66.0,29.92,WSW,240,5.0,-999.0,49,-99.99,,,0.00,,2013-06-15 22:43:00,
2013-06-15 17:53:00,88.0,68.0,29.92,South,188,4.0,-999.0,51,-99.99,,,0.00,,2013-06-15 22:53:00,
2013-06-15 18:02:00,87.0,67.0,29.92,SSW,193,4.0,-999.0,51,-99.99,,,0.00,,2013-06-15 23:02:00,
2013-06-15 18:12:00,86.0,67.0,29.92,SSW,204,4.0,-999.0,53,-99.99,,,0.00,,2013-06-15 23:12:00,
2013-06-15 18:22:00,87.0,68.0,29.92,South,183,1.0,-999.0,53,-99.99,,,0.00,,2013-06-15 23:22:00,
2013-06-15 18:33:00,87.0,67.0,29.92,South,185,3.0,-999.0,51,-99.99,,,0.00,,2013-06-15 23:33:00,
2013-06-15 18:42:00,87.0,67.0,29.92,South,179,4.0,-999.0,51,-99.99,,,0.00,,2013-06-15 23:42:00,
2013-06-15 18:53:00,86.0,66.0,29.92,South,169,3.0,-999.0,52,-99.99,,,0.00,,2013-06-15 23:53:00,
2013-06-15 19:02:00,86.0,67.0,29.92,SSE,162,3.0,-999.0,53,-99.99,,,0.00,,2013-06-16 00:02:00,
2013-06-15 19:11:00,85.0,66.0,29.91,SSE,166,2.0,-999.0,54,-99.99,,,0.00,,2013-06-16 00:11:00,
2013-06-15 19:22:00,85.0,67.0,29.92,South,187,3.0,-999.0,55,-99.99,,,0.00,,2013-06-16 00:22:00,
2013-06-15 19:34:00,84.0,68.0,29.92,South,189,3.0,-999.0,58,-99.99,,,0.00,,2013-06-16 00:34:00,
2013-06-15 19:43:00,83.0,68.0,29.92,South,189,2.0,-999.0,60,-99.99,,,0.00,,2013-06-16 00:43:00,
2013-06-15 19:52:00,83.0,68.0,29.93,South,189,2.0,-999.0,61,-99.99,,,0.00,,2013-06-16 00:52:00,
2013-06-15 20:01:00,82.0,68.0,29.94,South,189,1.0,-999.0,63,-99.99,,,0.00,,2013-06-16 01:01:00,
2013-06-15 20:12:00,81.0,68.0,29.94,SSE,147,0.0,-999.0,65,-99.99,,,0.00,,2013-06-16 01:12:00,
2013-06-15 20:22:00,79.0,69.0,29.94,SSE,147,0.0,-999.0,71,-99.99,,,0.00,,2013-06-16 01:22:00,
2013-06-15 20:33:00,78.0,69.0,29.95,SSE,147,0.0,-999.0,73,-99.99,,,0.00,,2013-06-16 01:33:00,
2013-06-15 20:42:00,76.0,68.0,29.95,SSE,147,0.0,-999.0,76,-99.99,,,0.00,,2013-06-16 01:42:00,
2013-06-15 20:53:00,76.0,68.0,29.96,SSE,148,0.0,-999.0,77,-99.99,,,0.00,,2013-06-16 01:53:00,
2013-06-15 21:02:00,75.0,68.0,29.96,SSE,148,0.0,-999.0,79,-99.99,,,0.00,,2013-06-16 02:02:00,
2013-06-15 21:12:00,75.0,68.0,29.97,SSE,147,0.0,-999.0,80,-99.99,,,0.00,,2013-06-16 02:12:00,
2013-06-15 21:22:00,74.0,68.0,29.97,SSE,148,0.0,-999.0,81,-99.99,,,0.00,,2013-06-16 02:22:00,
2013-06-15 21:33:00,73.0,68.0,29.98,SSE,148,0.0,-999.0,83,-99.99,,,0.00,,2013-06-16 02:33:00,
2013-06-15 21:43:00,73.0,68.0,29.98,SSE,148,0.0,-999.0,83,-99.99,,,0.00,,2013-06-16 02:43:00,
2013-06-15 21:53:00,73.0,68.0,29.99,SSE,148,0.0,-999.0,84,-99.99,,,0.00,,2013-06-16 02:53:00,
2013-06-15 22:02:00,73.0,68.0,30.00,SSE,148,0.0,-999.0,85,-99.99,,,0.00,,2013-06-16 03:02:00,
2013-06-15 22:12:00,72.0,68.0,30.00,SSE,148,0.0,-999.0,86,-99.99,,,0.00,,2013-06-16 03:12:00,
2013-06-15 22:22:00,72.0,68.0,30.00,SSE,147,0.0,-999.0,86,-99.99,,,0.00,,2013-06-16 03:22:00,
2013-06-15 22:33:00,72.0,68.0,30.00,SSE,148,0.0,-999.0,87,-99.99,,,0.00,,2013-06-16 03:33:00,
2013-06-15 22:43:00,71.0,67.0,30.01,SSE,148,0.0,-999.0,88,-99.99,,,0.00,,2013-06-16 03:43:00,
2013-06-15 22:53:00,71.0,67.0,30.01,SSE,148,0.0,-999.0,88,-99.99,,,0.00,,2013-06-16 03:53:00,
2013-06-15 23:02:00,71.0,68.0,30.01,SSE,147,0.0,-999.0,89,-99.99,,,0.00,,2013-06-16 04:02:00,
2013-06-15 23:12:00,70.0,67.0,30.00,SSE,148,0.0,-999.0,90,-99.99,,,0.00,,2013-06-16 04:12:00,
2013-06-15 23:23:00,70.0,67.0,30.01,SSE,147,0.0,-999.0,90,-99.99,,,0.00,,2013-06-16 04:23:00,
2013-06-15 23:34:00,70.0,67.0,30.01,SSE,148,0.0,-999.0,90,-99.99,,,0.00,,2013-06-16 04:34:00,
2013-06-15 23:42:00,70.0,67.0,30.01,SSE,148,0.0,-999.0,90,-99.99,,,0.00,,2013-06-16 04:42:00,
2013-06-15 23:53:00,70.0,67.0,30.01,SSE,147,0.0,-999.0,91,-99.99,,,0.00,,2013-06-16 04:53:00,